IRIDIUM 46 [P]

Last updated on Wed May 30 2018 00:19:59 GMT+0000 (Coordinated Universal Time)

1 24905U 97043C 18149.49644497 .00059131 -32071-6 41682-3 0 9996 2 24905 86.3862 103.6073 0285244 331.4217 27.1641 15.35296195 88442

Satellite not in orbit